Rbgn^[z[y[W
メイン
   新天体発見情報
     Comet C/2023 F1 (PANSTARRS)
投稿するにはまず登録を

スレッド表示 | 新しいものから 前のトピック | 次のトピック | 下へ
投稿者 スレッド
佐藤裕久
投稿日時: 2023-5-2 12:16
モデレータ
登録日: 2005-6-12
居住地: 日本
投稿: 2590
オンライン
Comet C/2023 F1 (PANSTARRS)

R. Weryk (西オンタリオ大学,物理および天文学科)の通報によると、3月27日、Haleakala
にあるPan-STARRS1の1.8-m Ritchey-Chretien 反射望遠鏡で得た画像から彗星を発見した。
小惑星センターのPCCP webpageに公表後、L. Buzzi (Varese, イタリア, 4月16.1日UT, 20-
秒露出27枚のスタック,  0.36-m f/7.5 反射望遠鏡, 観測はAlettiと F. Bellini: 良好な
コンディションで19.0等のわずかに集光した幅10"のコマとp.a. 85°に伸びている。半値全
幅(FWHM)は、同程度の明るさの恒星より5".0対4".0と大きい)らCCD観測者によって彗星状と
観測された。

彗星機能は次のとおり、

OC   Date        Reporter           Coma    Tail    PA          Exposures
J95  2023-04-11  P. Birtwhistle     8"                           80x12s
G40  2023-04-15  B. Lutkenhoner     8"                           48x20s
T14  2023-04-15  R. Weryk                     8"     30-60        3x60s
204  2023-04-16  A. Aletti         10"
U94  2023-04-21  H. Sato           12"       10"     45          40x20s

発見位置は次のとおり、

     2023 UT             R.A. (2000) Decl.       Mag.
     Mar. 27.59582   15 51 13.42   - 3 29 10.3   20.8
          27.60624   15 51 11.28   - 3 29 12.7   21.0
          27.61667   15 51 09.15   - 3 29 14.9   21.0
          27.62709   15 51 06.99   - 3 29 17.1   20.9

MPCの楕円軌道要素、位置推算表は次のとおり、

Orbital elements:
    C/2023 F1 (PANSTARRS)                                                       
Epoch 2023 Feb. 25.0 TT = JDT 2460000.5                                         
T 2023 June 28.35690 TT                                 Rudenko                 
q   1.7080928            (2000.0)            P               Q                  
z  +0.0038086      Peri.  216.65811     -0.89515690     +0.31215325             
 +/-0.0006941      Node    25.24753     +0.19316355     +0.91500180             
e   0.9934945      Incl.  131.75214     -0.40172375     -0.25560136             
From 167 observations 2023 Mar. 18-Apr. 25, mean residual 0".4.                 
                                                                                
Ephemeris:
Date    TT    R. A. (2000) Decl.     Delta      r    Elong.  Phase   m1
2023 03 27    15 53 12.6 -03 26 54   1.3300  2.0886   127.0    22.4  19.8
...
2023 04 11    14 43 07.9 -04 32 49   1.0216  1.9864   158.0    10.9  19.0
...
2023 04 19    13 47 43.7 -05 09 49   0.9350  1.9367   174.2     3.0  18.7
...
2023 04 25    13 01 34.4 -05 30 42   0.9196  1.9019   162.0     9.4  18.6
2023 04 26    12 53 52.1 -05 33 20   0.9214  1.8963   159.3    10.8  18.6
2023 04 27    12 46 13.3 -05 35 43   0.9244  1.8908   156.6    12.2  18.6
...
2023 05 03    12 02 43.5 -05 45 11   0.9665  1.8591   140.6    20.1  18.6
...
2023 05 11    11 14 37.3 -05 49 54   1.0759  1.8209   121.6    28.2  18.8
...
2023 05 26    10 16 48.5 -06 02 10   1.3741  1.7630    94.0    35.0  19.2

(MPEC 2023-H18、CBET 5248)

スレッド表示 | 新しいものから 前のトピック | 次のトピック | トップ

投稿するにはまず登録を
 
© 1999 Tsutomu Seki.